Time,TemperatureF,DewpointF,PressureIn,WindDirection,WindDirectionDegrees,WindSpeedMPH,WindSpeedGustMPH,Humidity,HourlyPrecipIn,Conditions,Clouds,dailyrainin,SoftwareType,DateUTC
2013-03-19 00:00:00,42.1,36.7,29.79,SW,222,3.0,14.0,81,0.00,,OVC028,0.62,VWS V14.01,2013-03-19 04:00:00,
2013-03-19 00:05:00,42.1,36.7,29.79,WNW,292,7.0,16.0,81,0.00,,OVC022,0.00,VWS V14.01,2013-03-19 04:05:00,
2013-03-19 00:10:00,41.8,36.1,29.79,West,278,8.0,16.0,80,0.00,,OVC022,0.00,VWS V14.01,2013-03-19 04:10:00,
2013-03-19 00:15:00,41.6,35.9,29.79,West,270,1.0,13.0,80,0.00,,OVC022,0.00,VWS V14.01,2013-03-19 04:15:00,
2013-03-19 00:20:00,41.5,35.8,29.79,West,265,5.0,19.0,80,0.00,,OVC022,0.00,VWS V14.01,2013-03-19 04:20:00,
2013-03-19 00:25:00,41.3,35.9,29.79,WNW,295,2.0,14.0,81,0.00,,OVC022,0.00,VWS V14.01,2013-03-19 04:25:00,
2013-03-19 00:30:00,41.1,35.4,29.79,West,272,6.0,18.0,80,0.00,,OVC022,0.00,VWS V14.01,2013-03-19 04:30:00,
2013-03-19 00:36:00,40.9,35.2,29.79,WNW,285,1.0,14.0,80,0.00,,OVC022,0.00,VWS V14.01,2013-03-19 04:36:00,
2013-03-19 00:41:00,40.8,35.1,29.79,NW,306,0.0,14.0,80,0.00,,OVC022,0.00,VWS V14.01,2013-03-19 04:41:00,
2013-03-19 00:45:00,40.8,34.8,29.80,WNW,291,1.0,12.0,79,0.00,,OVC100,0.00,VWS V14.01,2013-03-19 04:45:00,
2013-03-19 00:46:00,40.8,34.8,29.80,West,277,6.0,12.0,79,0.00,,OVC022,0.00,VWS V14.01,2013-03-19 04:46:00,
2013-03-19 00:51:00,40.6,34.3,29.80,West,281,4.0,12.0,78,0.00,,OVC022,0.00,VWS V14.01,2013-03-19 04:51:00,
2013-03-19 00:56:00,40.5,34.5,29.80,WNW,285,5.0,12.0,79,0.00,,OVC022,0.00,VWS V14.01,2013-03-19 04:56:00,
2013-03-19 01:00:00,40.5,34.5,29.80,West,272,2.0,11.0,79,0.00,,OVC100,0.00,VWS V14.01,2013-03-19 05:00:00,
2013-03-19 01:02:00,40.3,34.3,29.80,WNW,288,2.0,16.0,79,0.00,,OVC021,0.00,VWS V14.01,2013-03-19 05:02:00,
2013-03-19 01:07:00,40.2,34.2,29.80,NW,309,0.0,16.0,79,0.00,,OVC021,0.00,VWS V14.01,2013-03-19 05:07:00,
2013-03-19 01:12:00,40.1,34.1,29.80,WSW,253,6.0,13.0,79,0.00,,OVC021,0.00,VWS V14.01,2013-03-19 05:12:00,
2013-03-19 01:15:00,40.1,34.1,29.80,WNW,292,4.0,12.0,79,0.00,,OVC100,0.00,VWS V14.01,2013-03-19 05:15:00,
2013-03-19 01:17:00,40.1,34.1,29.80,WSW,247,8.0,13.0,79,0.00,,OVC021,0.00,VWS V14.01,2013-03-19 05:17:00,
2013-03-19 01:22:00,39.9,33.6,29.80,WNW,291,1.0,13.0,78,0.00,,OVC021,0.00,VWS V14.01,2013-03-19 05:22:00,
2013-03-19 01:27:00,39.8,33.8,29.80,WSW,251,6.0,10.0,79,0.00,,OVC021,0.00,VWS V14.01,2013-03-19 05:27:00,
2013-03-19 01:30:00,39.8,33.8,29.80,WNW,288,2.0,10.0,79,0.00,,OVC100,0.00,VWS V14.01,2013-03-19 05:30:00,
2013-03-19 01:32:00,39.8,33.5,29.80,WNW,289,5.0,10.0,78,0.00,,OVC021,0.00,VWS V14.01,2013-03-19 05:32:00,
2013-03-19 01:37:00,39.6,32.7,29.80,West,274,0.0,19.0,76,0.00,,OVC021,0.00,VWS V14.01,2013-03-19 05:37:00,
2013-03-19 01:42:00,39.6,32.3,29.81,SSW,206,6.0,11.0,75,0.00,,OVC021,0.00,VWS V14.01,2013-03-19 05:42:00,
2013-03-19 01:45:00,39.6,32.0,29.81,SSW,206,5.0,11.0,74,0.00,,OVC100,0.00,VWS V14.01,2013-03-19 05:45:00,
2013-03-19 01:47:00,39.5,31.6,29.81,SW,234,5.0,16.0,73,0.00,,OVC030,0.00,VWS V14.01,2013-03-19 05:47:00,
2013-03-19 01:52:00,39.5,31.9,29.81,SW,227,3.0,16.0,74,0.00,,OVC030,0.00,VWS V14.01,2013-03-19 05:52:00,
2013-03-19 01:57:00,39.3,31.7,29.81,SW,230,3.0,16.0,74,0.00,,OVC030,0.00,VWS V14.01,2013-03-19 05:57:00,
2013-03-19 02:00:00,39.2,31.6,29.82,WNW,282,2.0,13.0,74,0.00,,OVC100,0.00,VWS V14.01,2013-03-19 06:00:00,
2013-03-19 02:02:00,39.2,32.0,29.82,WNW,282,17.0,17.0,75,0.00,,OVC033,0.00,VWS V14.01,2013-03-19 06:02:00,
2013-03-19 02:07:00,38.9,31.0,29.81,NW,315,1.0,17.0,73,0.00,,OVC033,0.00,VWS V14.01,2013-03-19 06:07:00,
2013-03-19 02:12:00,38.9,31.0,29.81,West,272,1.0,12.0,73,0.00,,OVC033,0.00,VWS V14.01,2013-03-19 06:12:00,
2013-03-19 02:15:00,38.9,31.0,29.81,WSW,254,7.0,12.0,73,0.00,,OVC100,0.00,VWS V14.01,2013-03-19 06:15:00,
2013-03-19 02:17:00,38.9,31.0,29.81,WSW,243,0.0,12.0,73,0.00,,OVC033,0.00,VWS V14.01,2013-03-19 06:17:00,
2013-03-19 02:22:00,38.9,31.3,29.82,WNW,289,2.0,10.0,74,0.00,,OVC033,0.00,VWS V14.01,2013-03-19 06:22:00,
2013-03-19 02:27:00,38.9,31.3,29.82,WSW,253,1.0,13.0,74,0.00,,OVC033,0.00,VWS V14.01,2013-03-19 06:27:00,
2013-03-19 02:30:00,38.9,31.3,29.82,WSW,250,3.0,13.0,74,0.00,,OVC100,0.00,VWS V14.01,2013-03-19 06:30:00,
2013-03-19 02:32:00,38.9,31.3,29.82,West,271,6.0,11.0,74,0.00,,OVC033,0.00,VWS V14.01,2013-03-19 06:32:00,
2013-03-19 02:38:00,38.9,31.3,29.82,SW,233,2.0,10.0,74,0.00,,OVC033,0.00,VWS V14.01,2013-03-19 06:38:00,
2013-03-19 02:43:00,38.8,31.2,29.83,SSW,203,4.0,13.0,74,0.00,,OVC033,0.00,VWS V14.01,2013-03-19 06:43:00,
2013-03-19 02:45:00,38.8,31.2,29.82,WNW,288,2.0,13.0,74,0.00,,OVC100,0.00,VWS V14.01,2013-03-19 06:45:00,
2013-03-19 02:48:00,38.8,31.2,29.82,WSW,247,1.0,12.0,74,0.00,,OVC033,0.00,VWS V14.01,2013-03-19 06:48:00,
2013-03-19 02:53:00,38.8,31.2,29.83,SW,227,6.0,12.0,74,0.00,,OVC033,0.00,VWS V14.01,2013-03-19 06:53:00,
2013-03-19 02:58:00,38.6,31.0,29.83,West,261,0.0,12.0,74,0.00,,OVC033,0.00,VWS V14.01,2013-03-19 06:58:00,
2013-03-19 03:00:00,38.6,31.0,29.83,SW,234,3.0,12.0,74,0.00,,OVC100,0.00,VWS V14.01,2013-03-19 07:00:00,
2013-03-19 03:03:00,38.8,31.2,29.83,SW,229,1.0,11.0,74,0.00,,OVC038,0.00,VWS V14.01,2013-03-19 07:03:00,
2013-03-19 03:08:00,38.8,31.2,29.83,WNW,294,5.0,11.0,74,0.00,,OVC038,0.00,VWS V14.01,2013-03-19 07:08:00,
2013-03-19 03:13:00,38.8,30.9,29.83,WSW,240,1.0,13.0,73,0.00,,OVC038,0.00,VWS V14.01,2013-03-19 07:13:00,
2013-03-19 03:15:00,38.8,30.9,29.83,WSW,244,0.0,13.0,73,0.00,,OVC100,0.00,VWS V14.01,2013-03-19 07:15:00,
2013-03-19 03:18:00,38.8,30.9,29.83,SW,224,2.0,13.0,73,0.00,,OVC038,0.00,VWS V14.01,2013-03-19 07:18:00,
2013-03-19 03:23:00,38.8,30.9,29.83,WSW,257,1.0,8.0,73,0.00,,OVC038,0.00,VWS V14.01,2013-03-19 07:23:00,
2013-03-19 03:28:00,38.8,30.9,29.83,SSW,208,1.0,8.0,73,0.00,,OVC038,0.00,VWS V14.01,2013-03-19 07:28:00,
2013-03-19 03:30:00,38.8,30.9,29.83,WSW,247,2.0,7.0,73,0.00,,OVC100,0.00,VWS V14.01,2013-03-19 07:30:00,
2013-03-19 03:33:00,38.8,30.9,29.83,SW,236,1.0,7.0,73,0.00,,OVC038,0.00,VWS V14.01,2013-03-19 07:33:00,
2013-03-19 03:38:00,38.6,30.7,29.83,WSW,253,2.0,4.0,73,0.00,,OVC038,0.00,VWS V14.01,2013-03-19 07:38:00,
2013-03-19 03:43:00,38.6,30.7,29.83,SSW,208,3.0,8.0,73,0.00,,OVC038,0.00,VWS V14.01,2013-03-19 07:43:00,
2013-03-19 03:45:00,38.6,30.7,29.83,WSW,258,2.0,12.0,73,0.00,,OVC100,0.00,VWS V14.01,2013-03-19 07:45:00,
2013-03-19 03:48:00,38.6,30.4,29.83,SW,233,0.0,12.0,72,0.00,,OVC038,0.00,VWS V14.01,2013-03-19 07:48:00,
2013-03-19 03:53:00,38.6,30.7,29.83,WSW,240,1.0,6.0,73,0.00,,OVC038,0.00,VWS V14.01,2013-03-19 07:53:00,
2013-03-19 03:58:00,38.6,30.7,29.83,West,265,2.0,12.0,73,0.00,,OVC038,0.00,VWS V14.01,2013-03-19 07:58:00,
2013-03-19 04:00:00,38.6,30.7,29.83,West,267,2.0,12.0,73,0.00,,OVC100,0.00,VWS V14.01,2013-03-19 08:00:00,
2013-03-19 04:03:00,38.6,30.4,29.83,SW,219,4.0,12.0,72,0.00,,OVC041,0.00,VWS V14.01,2013-03-19 08:03:00,
2013-03-19 04:08:00,38.8,30.6,29.83,SW,216,3.0,12.0,72,0.00,,OVC041,0.00,VWS V14.01,2013-03-19 08:08:00,
2013-03-19 04:13:00,38.8,30.6,29.83,SSW,206,2.0,12.0,72,0.00,,OVC041,0.00,VWS V14.01,2013-03-19 08:13:00,
2013-03-19 04:15:00,38.8,30.6,29.83,SW,234,13.0,13.0,72,0.00,,OVC100,0.00,VWS V14.01,2013-03-19 08:15:00,
2013-03-19 04:18:00,38.8,30.6,29.83,SW,216,11.0,14.0,72,0.00,,OVC041,0.00,VWS V14.01,2013-03-19 08:18:00,
2013-03-19 04:23:00,38.8,30.6,29.83,SW,229,3.0,13.0,72,0.00,,OVC041,0.00,VWS V14.01,2013-03-19 08:23:00,
2013-03-19 04:28:00,38.5,30.6,29.83,WSW,241,3.0,17.0,73,0.00,,OVC041,0.00,VWS V14.01,2013-03-19 08:28:00,
2013-03-19 04:30:00,38.5,30.6,29.83,West,261,2.0,17.0,73,0.00,,OVC100,0.00,VWS V14.01,2013-03-19 08:30:00,
2013-03-19 04:33:00,38.5,30.6,29.83,WSW,251,7.0,17.0,73,0.00,,OVC041,0.00,VWS V14.01,2013-03-19 08:33:00,
2013-03-19 04:38:00,38.5,31.0,29.83,WSW,244,12.0,13.0,74,0.00,,OVC041,0.00,VWS V14.01,2013-03-19 08:38:00,
2013-03-19 04:43:00,38.3,31.4,29.83,SW,234,3.0,16.0,76,0.00,,OVC041,0.00,VWS V14.01,2013-03-19 08:43:00,
2013-03-19 04:45:00,38.2,31.3,29.83,WSW,241,1.0,16.0,76,0.00,,OVC100,0.00,VWS V14.01,2013-03-19 08:45:00,
2013-03-19 04:48:00,38.0,31.1,29.83,SW,227,3.0,13.0,76,0.00,,OVC041,0.00,VWS V14.01,2013-03-19 08:48:00,
2013-03-19 04:53:00,38.0,31.1,29.84,SSW,205,3.0,13.0,76,0.00,,OVC041,0.00,VWS V14.01,2013-03-19 08:53:00,
2013-03-19 04:59:00,38.0,31.1,29.84,WSW,248,2.0,12.0,76,0.00,,OVC041,0.00,VWS V14.01,2013-03-19 08:59:00,
2013-03-19 05:00:00,37.9,31.0,29.83,SW,223,2.0,12.0,76,0.00,,OVC100,0.00,VWS V14.01,2013-03-19 09:00:00,
2013-03-19 05:04:00,37.9,31.0,29.83,WSW,246,12.0,12.0,76,0.00,,OVC049,0.00,VWS V14.01,2013-03-19 09:04:00,
2013-03-19 05:09:00,37.8,30.9,29.83,WSW,237,0.0,12.0,76,0.00,,OVC049,0.00,VWS V14.01,2013-03-19 09:09:00,
2013-03-19 05:14:00,37.5,31.0,29.83,WSW,237,3.0,8.0,77,0.00,,OVC049,0.00,VWS V14.01,2013-03-19 09:14:00,
2013-03-19 05:15:00,37.5,31.0,29.83,SSW,202,8.0,10.0,77,0.00,,OVC100,0.00,VWS V14.01,2013-03-19 09:15:00,
2013-03-19 05:19:00,37.6,31.1,29.83,SSW,210,1.0,10.0,77,0.00,,OVC049,0.00,VWS V14.01,2013-03-19 09:19:00,
2013-03-19 05:24:00,37.6,31.1,29.83,SW,229,5.0,11.0,77,0.00,,OVC049,0.00,VWS V14.01,2013-03-19 09:24:00,
2013-03-19 05:29:00,37.8,31.6,29.84,SSW,206,8.0,11.0,78,0.00,,OVC049,0.00,VWS V14.01,2013-03-19 09:29:00,
2013-03-19 05:30:00,37.8,31.6,29.84,SW,215,1.0,12.0,78,0.00,,OVC100,0.00,VWS V14.01,2013-03-19 09:30:00,
2013-03-19 05:34:00,37.8,31.6,29.84,SW,227,2.0,13.0,78,0.00,,OVC049,0.00,VWS V14.01,2013-03-19 09:34:00,
2013-03-19 05:39:00,37.8,31.6,29.84,WSW,241,3.0,16.0,78,0.00,,OVC049,0.00,VWS V14.01,2013-03-19 09:39:00,
2013-03-19 05:44:00,37.6,31.4,29.84,WSW,251,5.0,16.0,78,0.00,,OVC049,0.00,VWS V14.01,2013-03-19 09:44:00,
2013-03-19 05:45:00,37.6,31.1,29.84,WSW,241,6.0,16.0,77,0.00,,OVC100,0.00,VWS V14.01,2013-03-19 09:45:00,
2013-03-19 05:49:00,37.6,31.1,29.84,SW,215,6.0,10.0,77,0.00,,OVC049,0.00,VWS V14.01,2013-03-19 09:49:00,
2013-03-19 05:54:00,37.6,31.1,29.84,SW,234,1.0,13.0,77,0.00,,OVC049,0.00,VWS V14.01,2013-03-19 09:54:00,
2013-03-19 05:59:00,37.8,31.2,29.84,SSW,212,6.0,14.0,77,0.00,,OVC049,0.00,VWS V14.01,2013-03-19 09:59:00,
2013-03-19 06:00:00,37.8,31.2,29.84,SW,226,1.0,14.0,77,0.00,,OVC100,0.00,VWS V14.01,2013-03-19 10:00:00,
2013-03-19 06:04:00,37.8,31.2,29.84,West,270,12.0,17.0,77,0.00,,BKN032,0.00,VWS V14.01,2013-03-19 10:04:00,
2013-03-19 06:09:00,37.8,31.2,29.84,SW,217,2.0,17.0,77,0.00,,BKN032,0.00,VWS V14.01,2013-03-19 10:09:00,
2013-03-19 06:14:00,37.8,31.2,29.85,SW,229,6.0,12.0,77,0.00,,BKN032,0.00,VWS V14.01,2013-03-19 10:14:00,
2013-03-19 06:15:00,37.8,31.6,29.85,SW,234,6.0,12.0,78,0.00,,OVC100,0.00,VWS V14.01,2013-03-19 10:15:00,
2013-03-19 06:19:00,37.8,31.2,29.85,WNW,301,10.0,13.0,77,0.00,,BKN032,0.00,VWS V14.01,2013-03-19 10:19:00,
2013-03-19 06:24:00,37.8,31.2,29.85,SW,222,3.0,14.0,77,0.00,,BKN032,0.00,VWS V14.01,2013-03-19 10:24:00,
2013-03-19 06:29:00,37.8,31.2,29.85,WSW,248,7.0,18.0,77,0.00,,BKN032,0.00,VWS V14.01,2013-03-19 10:29:00,
2013-03-19 06:30:00,37.8,31.2,29.85,WSW,253,2.0,18.0,77,0.00,,OVC100,0.00,VWS V14.01,2013-03-19 10:30:00,
2013-03-19 06:34:00,37.6,31.1,29.85,WSW,254,12.0,17.0,77,0.00,,OVC033,0.00,VWS V14.01,2013-03-19 10:34:00,
2013-03-19 06:39:00,37.6,31.1,29.85,South,186,1.0,17.0,77,0.00,,OVC033,0.00,VWS V14.01,2013-03-19 10:39:00,
2013-03-19 06:44:00,37.5,31.0,29.85,SSW,198,1.0,17.0,77,0.00,,OVC033,0.00,VWS V14.01,2013-03-19 10:44:00,
2013-03-19 06:45:00,37.5,31.0,29.85,WSW,256,4.0,17.0,77,0.00,,OVC100,0.00,VWS V14.01,2013-03-19 10:45:00,
2013-03-19 06:49:00,37.3,30.8,29.85,SW,236,8.0,14.0,77,0.00,,OVC033,0.00,VWS V14.01,2013-03-19 10:49:00,
2013-03-19 06:54:00,37.0,30.5,29.86,SW,223,5.0,14.0,77,0.00,,OVC033,0.00,VWS V14.01,2013-03-19 10:54:00,
2013-03-19 06:59:00,36.9,30.4,29.86,SSW,212,3.0,16.0,77,0.00,,OVC033,0.00,VWS V14.01,2013-03-19 10:59:00,
2013-03-19 07:00:00,36.9,30.4,29.86,West,261,7.0,16.0,77,0.00,,OVC100,0.00,VWS V14.01,2013-03-19 11:00:00,
2013-03-19 07:04:00,36.8,30.6,29.86,West,280,3.0,12.0,78,0.00,,OVC029,0.00,VWS V14.01,2013-03-19 11:04:00,
2013-03-19 07:09:00,36.8,30.6,29.86,SSW,206,5.0,16.0,78,0.00,,OVC029,0.00,VWS V14.01,2013-03-19 11:09:00,
2013-03-19 07:14:00,36.6,30.4,29.86,SW,216,2.0,16.0,78,0.00,,OVC029,0.00,VWS V14.01,2013-03-19 11:14:00,
2013-03-19 07:15:00,36.6,30.4,29.86,West,280,3.0,16.0,78,0.00,,OVC100,0.00,VWS V14.01,2013-03-19 11:15:00,
2013-03-19 07:19:00,36.5,30.3,29.86,West,271,2.0,8.0,78,0.00,,OVC029,0.00,VWS V14.01,2013-03-19 11:19:00,
2013-03-19 07:24:00,36.0,29.2,29.86,West,267,2.0,12.0,76,0.00,,OVC029,0.00,VWS V14.01,2013-03-19 11:24:00,
2013-03-19 07:29:00,35.6,28.5,29.86,WNW,285,0.0,12.0,75,0.00,,OVC029,0.00,VWS V14.01,2013-03-19 11:29:00,
2013-03-19 07:30:00,35.6,28.5,29.86,WNW,282,1.0,12.0,75,0.00,,OVC100,0.00,VWS V14.01,2013-03-19 11:30:00,
2013-03-19 07:35:00,35.3,28.2,29.86,WNW,295,0.0,7.0,75,0.00,,OVC029,0.00,VWS V14.01,2013-03-19 11:35:00,
2013-03-19 07:39:00,35.0,27.9,29.87,West,265,3.0,8.0,75,0.00,,OVC029,0.00,VWS V14.01,2013-03-19 11:39:00,
2013-03-19 07:45:00,34.9,27.8,29.87,WSW,258,3.0,8.0,75,0.00,,OVC029,0.00,VWS V14.01,2013-03-19 11:45:00,
2013-03-19 07:50:00,34.7,27.6,29.87,WNW,292,5.0,13.0,75,0.00,,OVC029,0.00,VWS V14.01,2013-03-19 11:50:00,
2013-03-19 07:55:00,34.6,27.5,29.88,SW,217,0.0,13.0,75,0.00,,OVC029,0.00,VWS V14.01,2013-03-19 11:55:00,
2013-03-19 08:00:00,34.6,27.8,29.88,WNW,302,3.0,11.0,76,0.00,,OVC029,0.00,VWS V14.01,2013-03-19 12:00:00,
2013-03-19 08:05:00,34.6,27.8,29.88,West,270,4.0,11.0,76,0.00,,OVC034,0.00,VWS V14.01,2013-03-19 12:05:00,
2013-03-19 08:10:00,34.6,27.8,29.88,West,270,3.0,11.0,76,0.00,,OVC034,0.00,VWS V14.01,2013-03-19 12:10:00,
2013-03-19 08:15:00,34.6,27.8,29.89,WNW,298,3.0,19.0,76,0.00,,OVC034,0.00,VWS V14.01,2013-03-19 12:15:00,
2013-03-19 08:20:00,34.3,27.2,29.89,West,260,3.0,19.0,75,0.00,,OVC034,0.00,VWS V14.01,2013-03-19 12:20:00,
2013-03-19 08:25:00,34.1,26.7,29.88,SW,223,3.0,18.0,74,0.00,,OVC034,0.00,VWS V14.01,2013-03-19 12:25:00,
2013-03-19 08:30:00,33.8,26.4,29.89,West,274,2.0,19.0,74,0.00,,BKN034,0.00,VWS V14.01,2013-03-19 12:30:00,
2013-03-19 08:35:00,34.0,26.6,29.89,WNW,284,2.0,19.0,74,0.00,,BKN034,0.00,VWS V14.01,2013-03-19 12:35:00,
2013-03-19 08:40:00,34.4,26.7,29.89,SW,219,2.0,10.0,73,0.00,,BKN034,0.00,VWS V14.01,2013-03-19 12:40:00,
2013-03-19 08:45:00,34.3,26.2,29.89,West,278,2.0,12.0,72,0.00,,BKN034,0.00,VWS V14.01,2013-03-19 12:45:00,
2013-03-19 08:50:00,33.8,25.4,29.89,West,281,3.0,16.0,71,0.00,,BKN034,0.00,VWS V14.01,2013-03-19 12:50:00,
2013-03-19 08:55:00,33.4,24.7,29.89,WSW,246,4.0,17.0,70,0.00,,BKN034,0.00,VWS V14.01,2013-03-19 12:55:00,
2013-03-19 09:00:00,33.2,24.8,29.89,WSW,244,12.0,17.0,71,0.00,,CLR,0.00,VWS V14.01,2013-03-19 13:00:00,
2013-03-19 09:05:00,33.2,24.5,29.90,South,184,1.0,22.0,70,0.00,,CLR,0.00,VWS V14.01,2013-03-19 13:05:00,
2013-03-19 09:10:00,33.5,24.1,29.90,WSW,246,11.0,21.0,68,0.00,,CLR,0.00,VWS V14.01,2013-03-19 13:10:00,
2013-03-19 09:15:00,33.4,23.3,29.90,WSW,256,11.0,24.0,66,0.00,,CLR,0.00,VWS V14.01,2013-03-19 13:15:00,
2013-03-19 09:20:00,33.2,22.7,29.90,West,271,9.0,24.0,65,0.00,,CLR,0.00,VWS V14.01,2013-03-19 13:20:00,
2013-03-19 09:25:00,32.9,22.8,29.90,West,280,4.0,22.0,66,0.00,,CLR,0.00,VWS V14.01,2013-03-19 13:25:00,
2013-03-19 09:30:00,33.2,22.4,29.90,West,265,18.0,18.0,64,0.00,,CLR,0.00,VWS V14.01,2013-03-19 13:30:00,
2013-03-19 09:35:00,33.2,22.4,29.90,SW,215,13.0,18.0,64,0.00,,CLR,0.00,VWS V14.01,2013-03-19 13:35:00,
2013-03-19 09:40:00,33.2,22.0,29.90,SW,219,7.0,21.0,63,0.00,,CLR,0.00,VWS V14.01,2013-03-19 13:40:00,
2013-03-19 09:45:00,32.9,22.1,29.91,SW,234,2.0,21.0,64,0.00,,CLR,0.00,VWS V14.01,2013-03-19 13:45:00,
2013-03-19 09:50:00,32.4,20.9,29.91,West,281,7.0,18.0,62,0.00,,CLR,0.00,VWS V14.01,2013-03-19 13:50:00,
2013-03-19 09:55:00,32.1,20.2,29.92,WNW,292,8.0,18.0,61,0.00,,CLR,0.00,VWS V14.01,2013-03-19 13:55:00,
2013-03-19 10:00:00,32.2,20.7,29.92,SW,226,2.0,18.0,62,0.00,,SCT028,0.00,VWS V14.01,2013-03-19 14:00:00,
2013-03-19 10:05:00,32.8,21.2,29.92,SSW,212,5.0,18.0,62,0.00,,SCT028,0.00,VWS V14.01,2013-03-19 14:05:00,
2013-03-19 10:10:00,33.1,21.5,29.92,NW,306,3.0,18.0,62,0.00,,SCT028,0.00,VWS V14.01,2013-03-19 14:10:00,
2013-03-19 10:15:00,32.8,20.8,29.92,WSW,248,4.0,16.0,61,0.00,,OVC100,0.00,VWS V14.01,2013-03-19 14:15:00,
2013-03-19 10:16:00,32.8,20.9,29.92,SSW,208,3.0,16.0,61,0.00,,SCT028,0.00,VWS V14.01,2013-03-19 14:16:00,
2013-03-19 10:21:00,32.9,20.9,29.92,West,263,0.0,29.0,61,0.00,,SCT028,0.00,VWS V14.01,2013-03-19 14:21:00,
2013-03-19 10:26:00,32.9,20.9,29.92,WSW,257,18.0,22.0,61,0.00,,SCT028,0.00,VWS V14.01,2013-03-19 14:26:00,
2013-03-19 10:30:00,32.7,21.1,29.92,WSW,254,8.0,19.0,62,0.00,,OVC100,0.00,VWS V14.01,2013-03-19 14:30:00,
2013-03-19 10:31:00,32.7,21.5,29.92,WNW,288,3.0,19.0,63,0.00,,SCT028,0.00,VWS V14.01,2013-03-19 14:31:00,
2013-03-19 10:36:00,32.4,20.9,29.92,NW,306,4.0,19.0,62,0.00,,SCT028,0.00,VWS V14.01,2013-03-19 14:36:00,
2013-03-19 10:41:00,32.2,21.4,29.93,West,280,10.0,22.0,64,0.00,,SCT028,0.00,VWS V14.01,2013-03-19 14:41:00,
2013-03-19 10:45:00,32.1,21.3,29.93,WNW,282,7.0,22.0,64,0.00,,OVC100,0.00,VWS V14.01,2013-03-19 14:45:00,
2013-03-19 10:46:00,32.2,21.4,29.93,SW,229,6.0,22.0,64,0.00,,SCT028,0.00,VWS V14.01,2013-03-19 14:46:00,
2013-03-19 10:51:00,32.2,21.0,29.93,SSW,205,8.0,21.0,63,0.00,,SCT028,0.00,VWS V14.01,2013-03-19 14:51:00,
2013-03-19 10:57:00,32.2,21.0,29.93,West,267,12.0,17.0,63,0.00,,SCT028,0.00,VWS V14.01,2013-03-19 14:57:00,
2013-03-19 11:00:00,32.2,21.0,29.93,WSW,239,6.0,17.0,63,0.00,,OVC100,0.00,VWS V14.01,2013-03-19 15:00:00,
2013-03-19 11:02:00,32.2,21.0,29.93,West,261,10.0,17.0,63,0.00,,SCT028,0.00,VWS V14.01,2013-03-19 15:02:00,
2013-03-19 11:07:00,31.9,21.5,29.94,NW,308,3.0,17.0,65,0.00,,SCT028,0.00,VWS V14.01,2013-03-19 15:07:00,
2013-03-19 11:12:00,31.9,21.1,29.94,West,280,5.0,20.0,64,0.00,,SCT028,0.00,VWS V14.01,2013-03-19 15:12:00,
2013-03-19 11:15:00,31.8,21.4,29.94,WNW,284,6.0,20.0,65,0.00,,OVC100,0.00,VWS V14.01,2013-03-19 15:15:00,
2013-03-19 11:17:00,31.9,21.1,29.94,WSW,246,1.0,16.0,64,0.00,,SCT028,0.00,VWS V14.01,2013-03-19 15:17:00,
2013-03-19 11:22:00,32.5,21.7,29.94,SW,227,6.0,16.0,64,0.00,,SCT028,0.00,VWS V14.01,2013-03-19 15:22:00,
2013-03-19 11:27:00,32.2,21.0,29.94,West,267,3.0,19.0,63,0.00,,SCT028,0.00,VWS V14.01,2013-03-19 15:27:00,
2013-03-19 11:30:00,31.8,20.7,29.94,NW,313,6.0,19.0,63,0.00,,OVC100,0.00,VWS V14.01,2013-03-19 15:30:00,
2013-03-19 11:32:00,31.8,21.0,29.94,SW,223,3.0,18.0,64,0.00,,SCT028,0.00,VWS V14.01,2013-03-19 15:32:00,
2013-03-19 11:37:00,32.8,22.0,29.94,NW,313,6.0,14.0,64,0.00,,SCT028,0.00,VWS V14.01,2013-03-19 15:37:00,
2013-03-19 11:42:00,33.7,22.1,29.94,SSW,193,8.0,22.0,62,0.00,,SCT028,0.00,VWS V14.01,2013-03-19 15:42:00,
2013-03-19 11:45:00,34.1,21.7,29.94,SW,215,5.0,22.0,60,0.00,,OVC100,0.00,VWS V14.01,2013-03-19 15:45:00,
2013-03-19 11:47:00,34.3,21.5,29.94,SW,232,2.0,22.0,59,0.00,,SCT028,0.00,VWS V14.01,2013-03-19 15:47:00,
2013-03-19 11:52:00,34.0,20.8,29.95,SSW,210,19.0,32.0,58,0.00,,SCT028,0.00,VWS V14.01,2013-03-19 15:52:00,
2013-03-19 11:57:00,33.5,20.7,29.95,SW,222,13.0,32.0,59,0.00,,SCT028,0.00,VWS V14.01,2013-03-19 15:57:00,
2013-03-19 12:00:00,33.1,20.3,29.96,West,264,5.0,21.0,59,0.00,,OVC100,0.00,VWS V14.01,2013-03-19 16:00:00,
2013-03-19 12:02:00,32.9,20.5,29.96,WNW,292,2.0,21.0,60,0.00,,SCT032,0.00,VWS V14.01,2013-03-19 16:02:00,
2013-03-19 12:07:00,32.8,20.1,29.95,WNW,285,2.0,21.0,59,0.00,,SCT032,0.00,VWS V14.01,2013-03-19 16:07:00,
2013-03-19 12:12:00,32.9,20.2,29.95,NW,325,6.0,19.0,59,0.00,,SCT032,0.00,VWS V14.01,2013-03-19 16:12:00,
2013-03-19 12:15:00,33.1,20.3,29.95,SW,227,2.0,19.0,59,0.00,,OVC100,0.00,VWS V14.01,2013-03-19 16:15:00,
2013-03-19 12:17:00,33.7,20.9,29.95,SW,219,9.0,19.0,59,0.00,,SCT032,0.00,VWS V14.01,2013-03-19 16:17:00,
2013-03-19 12:22:00,34.7,21.0,29.95,SW,226,7.0,19.0,57,0.00,,SCT032,0.00,VWS V14.01,2013-03-19 16:22:00,
2013-03-19 12:28:00,34.6,21.0,29.95,WSW,240,6.0,24.0,57,0.00,,SCT032,0.00,VWS V14.01,2013-03-19 16:28:00,
2013-03-19 12:30:00,34.6,21.4,29.95,West,280,6.0,24.0,58,0.00,,OVC100,0.00,VWS V14.01,2013-03-19 16:30:00,
2013-03-19 12:33:00,35.0,21.3,29.95,WNW,287,7.0,16.0,57,0.00,,SCT032,0.00,VWS V14.01,2013-03-19 16:33:00,
2013-03-19 12:38:00,35.3,21.2,29.95,WSW,239,3.0,22.0,56,0.00,,SCT032,0.00,VWS V14.01,2013-03-19 16:38:00,
2013-03-19 12:43:00,36.2,22.0,29.95,WSW,239,5.0,22.0,56,0.00,,SCT032,0.00,VWS V14.01,2013-03-19 16:43:00,
2013-03-19 12:45:00,36.3,21.7,29.95,WSW,248,8.0,18.0,55,0.00,,OVC100,0.00,VWS V14.01,2013-03-19 16:45:00,
2013-03-19 12:48:00,36.2,21.2,29.95,SW,233,12.0,18.0,54,0.00,,SCT032,0.00,VWS V14.01,2013-03-19 16:48:00,
2013-03-19 12:53:00,36.5,22.3,29.95,SW,226,7.0,22.0,56,0.00,,SCT032,0.00,VWS V14.01,2013-03-19 16:53:00,
2013-03-19 12:58:00,36.3,21.7,29.95,WNW,296,2.0,22.0,55,0.00,,SCT032,0.00,VWS V14.01,2013-03-19 16:58:00,
2013-03-19 13:00:00,36.3,21.7,29.95,SW,230,8.0,22.0,55,0.00,,OVC100,0.00,VWS V14.01,2013-03-19 17:00:00,
2013-03-19 13:03:00,36.0,21.8,29.95,West,280,3.0,19.0,56,0.00,,OVC044,0.00,VWS V14.01,2013-03-19 17:03:00,
2013-03-19 13:08:00,36.2,21.6,29.96,ESE,123,1.0,17.0,55,0.00,,OVC044,0.00,VWS V14.01,2013-03-19 17:08:00,
2013-03-19 13:13:00,37.2,21.7,29.95,WSW,239,11.0,22.0,53,0.00,,OVC044,0.00,VWS V14.01,2013-03-19 17:13:00,
2013-03-19 13:15:00,37.2,21.2,29.95,SW,232,5.0,22.0,52,0.00,,OVC100,0.00,VWS V14.01,2013-03-19 17:15:00,
2013-03-19 13:18:00,37.0,21.0,29.95,SSW,206,6.0,22.0,52,0.00,,OVC044,0.00,VWS V14.01,2013-03-19 17:18:00,
2013-03-19 13:23:00,36.9,21.4,29.95,NW,308,12.0,19.0,53,0.00,,OVC044,0.00,VWS V14.01,2013-03-19 17:23:00,
2013-03-19 13:28:00,37.0,22.4,29.95,West,260,2.0,24.0,55,0.00,,OVC044,0.00,VWS V14.01,2013-03-19 17:28:00,
2013-03-19 13:30:00,37.2,22.5,29.95,SSW,208,13.0,24.0,55,0.00,,OVC100,0.00,VWS V14.01,2013-03-19 17:30:00,
2013-03-19 13:33:00,37.8,22.2,29.95,SSW,203,12.0,17.0,53,0.00,,OVC044,0.00,VWS V14.01,2013-03-19 17:33:00,
2013-03-19 13:38:00,37.9,21.9,29.95,WNW,292,4.0,17.0,52,0.00,,OVC044,0.00,VWS V14.01,2013-03-19 17:38:00,
2013-03-19 13:43:00,37.6,21.6,29.95,SSW,208,3.0,18.0,52,0.00,,OVC044,0.00,VWS V14.01,2013-03-19 17:43:00,
2013-03-19 13:45:00,37.6,21.6,29.95,WSW,246,6.0,18.0,52,0.00,,OVC100,0.00,VWS V14.01,2013-03-19 17:45:00,
2013-03-19 13:49:00,37.8,21.8,29.95,WSW,237,2.0,18.0,52,0.00,,OVC044,0.00,VWS V14.01,2013-03-19 17:49:00,
2013-03-19 13:54:00,38.2,21.2,29.95,WNW,287,2.0,18.0,50,0.00,,OVC044,0.00,VWS V14.01,2013-03-19 17:54:00,
2013-03-19 13:59:00,38.0,22.0,29.95,West,272,11.0,18.0,52,0.00,,OVC044,0.00,VWS V14.01,2013-03-19 17:59:00,
2013-03-19 14:00:00,38.2,21.7,29.95,West,268,6.0,21.0,51,0.00,,OVC100,0.00,VWS V14.01,2013-03-19 18:00:00,
2013-03-19 14:04:00,38.9,22.3,29.95,SSW,202,6.0,21.0,51,0.00,,OVC055,0.00,VWS V14.01,2013-03-19 18:04:00,
2013-03-19 14:09:00,39.9,22.3,29.95,SW,226,7.0,20.0,49,0.00,,OVC055,0.00,VWS V14.01,2013-03-19 18:09:00,
2013-03-19 14:14:00,40.1,22.0,29.95,West,278,2.0,24.0,48,0.00,,OVC055,0.00,VWS V14.01,2013-03-19 18:14:00,
2013-03-19 14:15:00,40.1,22.0,29.95,West,271,0.0,24.0,48,0.00,,OVC100,0.00,VWS V14.01,2013-03-19 18:15:00,
2013-03-19 14:19:00,40.2,22.1,29.95,West,281,14.0,24.0,48,0.00,,OVC055,0.00,VWS V14.01,2013-03-19 18:19:00,
2013-03-19 14:24:00,39.9,20.8,29.96,West,267,9.0,19.0,46,0.00,,OVC055,0.00,VWS V14.01,2013-03-19 18:24:00,
2013-03-19 14:29:00,39.5,21.0,29.96,South,181,2.0,22.0,47,0.00,,OVC055,0.00,VWS V14.01,2013-03-19 18:29:00,
2013-03-19 14:30:00,39.5,21.0,29.96,SW,233,2.0,22.0,47,0.00,,OVC100,0.00,VWS V14.01,2013-03-19 18:30:00,
2013-03-19 14:34:00,39.6,22.0,29.96,NNW,332,5.0,22.0,49,0.00,,OVC055,0.00,VWS V14.01,2013-03-19 18:34:00,
2013-03-19 14:39:00,39.8,21.7,29.96,WSW,241,7.0,13.0,48,0.00,,OVC055,0.00,VWS V14.01,2013-03-19 18:39:00,
2013-03-19 14:44:00,39.3,21.3,29.96,SW,227,20.0,20.0,48,0.00,,OVC055,0.00,VWS V14.01,2013-03-19 18:44:00,
2013-03-19 14:45:00,39.2,21.2,29.96,WNW,295,6.0,20.0,48,0.00,,OVC100,0.00,VWS V14.01,2013-03-19 18:45:00,
2013-03-19 14:49:00,38.8,20.3,29.96,West,267,10.0,22.0,47,0.00,,OVC055,0.00,VWS V14.01,2013-03-19 18:49:00,
2013-03-19 14:54:00,39.1,19.0,29.96,SW,236,13.0,25.0,44,0.00,,OVC055,0.00,VWS V14.01,2013-03-19 18:54:00,
2013-03-19 14:59:00,38.9,20.4,29.96,WSW,257,8.0,25.0,47,0.00,,OVC055,0.00,VWS V14.01,2013-03-19 18:59:00,
2013-03-19 15:00:00,38.9,20.4,29.96,West,265,8.0,25.0,47,0.00,,OVC100,0.00,VWS V14.01,2013-03-19 19:00:00,
2013-03-19 15:04:00,39.2,20.2,29.96,WNW,291,9.0,20.0,46,0.00,,OVC055,0.00,VWS V14.01,2013-03-19 19:04:00,
2013-03-19 15:09:00,39.1,20.1,29.96,West,267,11.0,21.0,46,0.00,,OVC055,0.00,VWS V14.01,2013-03-19 19:09:00,
2013-03-19 15:14:00,38.9,20.9,29.96,WNW,291,7.0,27.0,48,0.00,,OVC055,0.00,VWS V14.01,2013-03-19 19:14:00,
2013-03-19 15:15:00,39.1,21.1,29.96,West,264,12.0,27.0,48,0.00,,OVC100,0.00,VWS V14.01,2013-03-19 19:15:00,
2013-03-19 15:19:00,38.8,21.3,29.96,West,261,18.0,27.0,49,0.00,,OVC055,0.00,VWS V14.01,2013-03-19 19:19:00,
2013-03-19 15:24:00,38.9,20.9,29.96,SSW,199,11.0,24.0,48,0.00,,OVC055,0.00,VWS V14.01,2013-03-19 19:24:00,
2013-03-19 15:29:00,39.1,19.0,29.96,WSW,256,7.0,26.0,44,0.00,,OVC055,0.00,VWS V14.01,2013-03-19 19:29:00,
2013-03-19 15:30:00,39.1,19.0,29.96,West,275,12.0,26.0,44,0.00,,OVC100,0.00,VWS V14.01,2013-03-19 19:30:00,
2013-03-19 15:34:00,39.1,19.6,29.96,WNW,292,6.0,26.0,45,0.00,,OVC055,0.00,VWS V14.01,2013-03-19 19:34:00,
2013-03-19 15:39:00,39.1,19.6,29.97,SW,236,11.0,24.0,45,0.00,,OVC055,0.00,VWS V14.01,2013-03-19 19:39:00,
2013-03-19 15:45:00,38.9,20.4,29.97,West,278,11.0,21.0,47,0.00,,OVC055,0.00,VWS V14.01,2013-03-19 19:45:00,
2013-03-19 15:50:00,39.2,20.2,29.97,SW,234,5.0,20.0,46,0.00,,OVC055,0.00,VWS V14.01,2013-03-19 19:50:00,
2013-03-19 15:55:00,39.1,20.1,29.98,NNW,336,1.0,26.0,46,0.00,,OVC055,0.00,VWS V14.01,2013-03-19 19:55:00,
2013-03-19 16:00:00,39.5,19.9,29.98,SW,224,3.0,26.0,45,0.00,,OVC055,0.00,VWS V14.01,2013-03-19 20:00:00,
2013-03-19 16:05:00,39.9,19.8,29.98,West,261,8.0,32.0,44,0.00,,OVC055,0.00,VWS V14.01,2013-03-19 20:05:00,
2013-03-19 16:10:00,39.9,18.7,29.98,WNW,282,5.0,21.0,42,0.00,,OVC055,0.00,VWS V14.01,2013-03-19 20:10:00,
2013-03-19 16:15:00,39.6,19.0,29.98,WNW,295,7.0,22.0,43,0.00,,OVC055,0.00,VWS V14.01,2013-03-19 20:15:00,
2013-03-19 16:20:00,40.2,20.6,29.98,West,277,8.0,20.0,45,0.00,,OVC055,0.00,VWS V14.01,2013-03-19 20:20:00,
2013-03-19 16:25:00,41.2,19.9,29.97,NW,304,10.0,29.0,42,0.00,,OVC055,0.00,VWS V14.01,2013-03-19 20:25:00,
2013-03-19 16:30:00,41.2,19.3,29.97,West,268,14.0,29.0,41,0.00,,OVC055,0.00,VWS V14.01,2013-03-19 20:30:00,
2013-03-19 16:35:00,41.2,18.7,29.97,West,275,20.0,33.0,40,0.00,,OVC055,0.00,VWS V14.01,2013-03-19 20:35:00,
2013-03-19 16:40:00,41.6,19.1,29.98,West,270,12.0,20.0,40,0.00,,OVC055,0.00,VWS V14.01,2013-03-19 20:40:00,
2013-03-19 16:45:00,41.9,19.4,29.98,NW,312,10.0,25.0,40,0.00,,OVC055,0.00,VWS V14.01,2013-03-19 20:45:00,
2013-03-19 16:50:00,41.3,19.4,29.98,WSW,254,17.0,31.0,41,0.00,,OVC055,0.00,VWS V14.01,2013-03-19 20:50:00,
2013-03-19 16:55:00,40.5,20.3,29.98,SSW,213,3.0,30.0,44,0.00,,OVC055,0.00,VWS V14.01,2013-03-19 20:55:00,
2013-03-19 17:00:00,40.1,19.4,29.98,WSW,258,10.0,29.0,43,0.00,,BKN060,0.00,VWS V14.01,2013-03-19 21:00:00,
2013-03-19 17:05:00,40.8,17.8,29.98,West,275,5.0,26.0,39,0.00,,BKN060,0.00,VWS V14.01,2013-03-19 21:05:00,
2013-03-19 17:10:00,40.9,17.3,29.99,WNW,294,4.0,25.0,38,0.00,,BKN060,0.00,VWS V14.01,2013-03-19 21:10:00,
2013-03-19 17:15:00,40.9,19.6,29.98,WSW,256,14.0,25.0,42,0.00,,BKN060,0.00,VWS V14.01,2013-03-19 21:15:00,
2013-03-19 17:20:00,40.3,19.6,29.99,NW,312,13.0,22.0,43,0.00,,BKN060,0.00,VWS V14.01,2013-03-19 21:20:00,
2013-03-19 17:25:00,40.5,19.8,29.99,WSW,256,7.0,20.0,43,0.00,,BKN060,0.00,VWS V14.01,2013-03-19 21:25:00,
2013-03-19 17:30:00,40.8,18.4,29.98,SSW,209,21.0,26.0,40,0.00,,BKN060,0.00,VWS V14.01,2013-03-19 21:30:00,
2013-03-19 17:36:00,40.9,17.9,29.99,WNW,299,14.0,28.0,39,0.00,,BKN060,0.00,VWS V14.01,2013-03-19 21:36:00,
2013-03-19 17:41:00,40.6,18.2,29.99,West,271,12.0,25.0,40,0.00,,BKN060,0.00,VWS V14.01,2013-03-19 21:41:00,
2013-03-19 17:45:00,40.2,19.0,29.99,WSW,250,6.0,21.0,42,0.00,,OVC100,0.00,VWS V14.01,2013-03-19 21:45:00,
2013-03-19 17:46:00,40.1,18.9,29.99,West,265,7.0,21.0,42,0.00,,BKN060,0.00,VWS V14.01,2013-03-19 21:46:00,
2013-03-19 17:51:00,40.3,20.1,29.99,West,261,24.0,26.0,44,0.00,,BKN060,0.00,VWS V14.01,2013-03-19 21:51:00,
2013-03-19 17:56:00,40.5,18.7,30.00,WNW,301,7.0,26.0,41,0.00,,BKN060,0.00,VWS V14.01,2013-03-19 21:56:00,
2013-03-19 18:00:00,40.6,18.2,30.00,WNW,282,3.0,25.0,40,0.00,,OVC100,0.00,VWS V14.01,2013-03-19 22:00:00,
2013-03-19 18:01:00,40.5,18.1,30.00,WNW,294,9.0,25.0,40,0.00,,FEW055,0.00,VWS V14.01,2013-03-19 22:01:00,
2013-03-19 18:06:00,40.2,18.4,30.00,West,281,10.0,25.0,41,0.00,,FEW055,0.00,VWS V14.01,2013-03-19 22:06:00,
2013-03-19 18:11:00,40.3,17.9,30.00,West,268,4.0,20.0,40,0.00,,FEW055,0.00,VWS V14.01,2013-03-19 22:11:00,
2013-03-19 18:15:00,40.2,17.8,30.00,West,278,13.0,24.0,40,0.00,,OVC100,0.00,VWS V14.01,2013-03-19 22:15:00,
2013-03-19 18:16:00,40.1,17.7,30.00,NW,304,7.0,24.0,40,0.00,,FEW055,0.00,VWS V14.01,2013-03-19 22:16:00,
2013-03-19 18:21:00,40.1,17.7,30.00,West,271,1.0,24.0,40,0.00,,FEW055,0.00,VWS V14.01,2013-03-19 22:21:00,
2013-03-19 18:26:00,40.2,18.4,30.00,NW,319,9.0,18.0,41,0.00,,FEW055,0.00,VWS V14.01,2013-03-19 22:26:00,
2013-03-19 18:30:00,40.2,19.0,30.00,WNW,284,4.0,17.0,42,0.00,,OVC100,0.00,VWS V14.01,2013-03-19 22:30:00,
2013-03-19 18:31:00,40.2,19.0,30.00,WNW,291,4.0,17.0,42,0.00,,FEW055,0.00,VWS V14.01,2013-03-19 22:31:00,
2013-03-19 18:36:00,40.1,18.3,30.00,SW,232,6.0,22.0,41,0.00,,FEW055,0.00,VWS V14.01,2013-03-19 22:36:00,
2013-03-19 18:41:00,39.6,17.3,30.00,SW,230,7.0,22.0,40,0.00,,FEW055,0.00,VWS V14.01,2013-03-19 22:41:00,
2013-03-19 18:45:00,39.3,17.6,30.01,West,274,5.0,11.0,41,0.00,,OVC100,0.00,VWS V14.01,2013-03-19 22:45:00,
2013-03-19 18:46:00,39.3,17.6,30.01,NW,311,2.0,13.0,41,0.00,,FEW055,0.00,VWS V14.01,2013-03-19 22:46:00,
2013-03-19 18:52:00,39.1,18.0,30.01,West,263,8.0,17.0,42,0.00,,FEW055,0.00,VWS V14.01,2013-03-19 22:52:00,
2013-03-19 18:57:00,38.9,18.3,30.01,West,261,4.0,17.0,43,0.00,,FEW055,0.00,VWS V14.01,2013-03-19 22:57:00,
2013-03-19 19:00:00,38.8,18.2,30.01,WNW,288,8.0,14.0,43,0.00,,OVC100,0.00,VWS V14.01,2013-03-19 23:00:00,
2013-03-19 19:02:00,38.8,18.2,30.01,NW,306,6.0,14.0,43,0.00,,CLR,0.00,VWS V14.01,2013-03-19 23:02:00,
2013-03-19 19:07:00,38.6,18.6,30.02,WSW,254,7.0,14.0,44,0.00,,CLR,0.00,VWS V14.01,2013-03-19 23:07:00,
2013-03-19 19:12:00,38.3,18.8,30.02,WSW,247,2.0,14.0,45,0.00,,CLR,0.00,VWS V14.01,2013-03-19 23:12:00,
2013-03-19 19:15:00,38.2,18.8,30.02,West,260,2.0,11.0,45,0.00,,OVC100,0.00,VWS V14.01,2013-03-19 23:15:00,
2013-03-19 19:17:00,38.2,18.2,30.02,NW,306,3.0,11.0,44,0.00,,CLR,0.00,VWS V14.01,2013-03-19 23:17:00,
2013-03-19 19:22:00,37.9,17.4,30.02,West,263,5.0,11.0,43,0.00,,CLR,0.00,VWS V14.01,2013-03-19 23:22:00,
2013-03-19 19:27:00,37.8,16.2,30.02,NNE,23,12.0,16.0,41,0.00,,CLR,0.00,VWS V14.01,2013-03-19 23:27:00,
2013-03-19 19:30:00,37.6,16.0,30.02,WSW,239,7.0,17.0,41,0.00,,OVC100,0.00,VWS V14.01,2013-03-19 23:30:00,
2013-03-19 19:32:00,37.6,15.5,30.02,West,281,2.0,17.0,40,0.00,,CLR,0.00,VWS V14.01,2013-03-19 23:32:00,
2013-03-19 19:37:00,37.3,15.2,30.02,WNW,288,6.0,16.0,40,0.00,,CLR,0.00,VWS V14.01,2013-03-19 23:37:00,
2013-03-19 19:42:00,37.2,16.2,30.02,West,281,4.0,15.0,42,0.00,,CLR,0.00,VWS V14.01,2013-03-19 23:42:00,
2013-03-19 19:45:00,37.0,16.1,30.03,West,281,5.0,15.0,42,0.00,,OVC100,0.00,VWS V14.01,2013-03-19 23:45:00,
2013-03-19 19:47:00,37.0,16.1,30.03,WNW,288,2.0,15.0,42,0.00,,CLR,0.00,VWS V14.01,2013-03-19 23:47:00,
2013-03-19 19:52:00,36.8,15.9,30.03,West,277,3.0,13.0,42,0.00,,CLR,0.00,VWS V14.01,2013-03-19 23:52:00,
2013-03-19 19:57:00,36.8,15.9,30.03,WNW,299,11.0,22.0,42,0.00,,CLR,0.00,VWS V14.01,2013-03-19 23:57:00,
2013-03-19 20:00:00,36.6,15.7,30.03,NW,313,0.0,22.0,42,0.00,,OVC100,0.00,VWS V14.01,2013-03-20 00:00:00,
2013-03-19 20:02:00,36.5,15.6,30.03,NW,305,1.0,22.0,42,0.00,,CLR,0.00,VWS V14.01,2013-03-20 00:02:00,
2013-03-19 20:07:00,36.3,16.0,30.04,West,264,10.0,12.0,43,0.00,,CLR,0.00,VWS V14.01,2013-03-20 00:07:00,
2013-03-19 20:12:00,36.2,15.9,30.04,West,274,3.0,10.0,43,0.00,,CLR,0.00,VWS V14.01,2013-03-20 00:12:00,
2013-03-19 20:15:00,36.0,15.7,30.04,West,272,2.0,10.0,43,0.00,,OVC100,0.00,VWS V14.01,2013-03-20 00:15:00,
2013-03-19 20:17:00,36.0,15.7,30.04,NW,304,2.0,8.0,43,0.00,,CLR,0.00,VWS V14.01,2013-03-20 00:17:00,
2013-03-19 20:22:00,35.9,16.1,30.04,WSW,257,1.0,10.0,44,0.00,,CLR,0.00,VWS V14.01,2013-03-20 00:22:00,
2013-03-19 20:27:00,35.8,16.5,30.05,West,274,2.0,12.0,45,0.00,,CLR,0.00,VWS V14.01,2013-03-20 00:27:00,
2013-03-19 20:30:00,35.8,16.5,30.05,West,264,2.0,12.0,45,0.00,,OVC100,0.00,VWS V14.01,2013-03-20 00:30:00,
2013-03-19 20:33:00,35.6,16.9,30.05,WNW,282,5.0,12.0,46,0.00,,CLR,0.00,VWS V14.01,2013-03-20 00:33:00,
2013-03-19 20:38:00,35.5,16.8,30.05,WSW,237,2.0,7.0,46,0.00,,CLR,0.00,VWS V14.01,2013-03-20 00:38:00,
2013-03-19 20:43:00,35.3,16.6,30.05,SW,226,1.0,6.0,46,0.00,,CLR,0.00,VWS V14.01,2013-03-20 00:43:00,
2013-03-19 20:45:00,35.3,16.6,30.05,SW,234,0.0,6.0,46,0.00,,OVC100,0.00,VWS V14.01,2013-03-20 00:45:00,
2013-03-19 20:48:00,35.2,17.0,30.05,WNW,284,0.0,5.0,47,0.00,,CLR,0.00,VWS V14.01,2013-03-20 00:48:00,
2013-03-19 20:53:00,35.2,17.0,30.06,West,280,2.0,10.0,47,0.00,,CLR,0.00,VWS V14.01,2013-03-20 00:53:00,
2013-03-19 20:58:00,35.0,17.3,30.05,West,281,2.0,10.0,48,0.00,,CLR,0.00,VWS V14.01,2013-03-20 00:58:00,
2013-03-19 21:00:00,34.9,17.7,30.06,SW,227,0.0,7.0,49,0.00,,OVC100,0.00,VWS V14.01,2013-03-20 01:00:00,
2013-03-19 21:03:00,34.9,17.7,30.06,West,264,0.0,7.0,49,0.00,,CLR,0.00,VWS V14.01,2013-03-20 01:03:00,
2013-03-19 21:08:00,34.6,17.4,30.06,WNW,291,1.0,7.0,49,0.00,,CLR,0.00,VWS V14.01,2013-03-20 01:08:00,
2013-03-19 21:13:00,34.6,17.4,30.06,WSW,246,2.0,6.0,49,0.00,,CLR,0.00,VWS V14.01,2013-03-20 01:13:00,
2013-03-19 21:15:00,34.4,17.2,30.07,WSW,256,5.0,8.0,49,0.00,,OVC100,0.00,VWS V14.01,2013-03-20 01:15:00,
2013-03-19 21:18:00,34.4,17.2,30.07,West,272,2.0,8.0,49,0.00,,CLR,0.00,VWS V14.01,2013-03-20 01:18:00,
2013-03-19 21:23:00,34.4,17.2,30.07,WSW,247,0.0,11.0,49,0.00,,CLR,0.00,VWS V14.01,2013-03-20 01:23:00,
2013-03-19 21:28:00,34.4,17.2,30.07,SW,230,2.0,8.0,49,0.00,,CLR,0.00,VWS V14.01,2013-03-20 01:28:00,
2013-03-19 21:30:00,34.3,17.1,30.07,WSW,237,6.0,8.0,49,0.00,,OVC100,0.00,VWS V14.01,2013-03-20 01:30:00,
2013-03-19 21:33:00,34.4,17.2,30.07,WNW,294,1.0,8.0,49,0.00,,CLR,0.00,VWS V14.01,2013-03-20 01:33:00,
2013-03-19 21:38:00,34.4,17.2,30.08,West,274,0.0,12.0,49,0.00,,CLR,0.00,VWS V14.01,2013-03-20 01:38:00,
2013-03-19 21:43:00,34.1,17.4,30.08,WSW,251,0.0,6.0,50,0.00,,CLR,0.00,VWS V14.01,2013-03-20 01:43:00,
2013-03-19 21:45:00,34.1,17.4,30.08,West,280,1.0,6.0,50,0.00,,OVC100,0.00,VWS V14.01,2013-03-20 01:45:00,
2013-03-19 21:48:00,34.0,17.3,30.08,West,271,0.0,5.0,50,0.00,,CLR,0.00,VWS V14.01,2013-03-20 01:48:00,
2013-03-19 21:53:00,33.8,17.1,30.08,West,275,0.0,6.0,50,0.00,,CLR,0.00,VWS V14.01,2013-03-20 01:53:00,
2013-03-19 21:58:00,33.8,17.6,30.08,WSW,240,2.0,4.0,51,0.00,,CLR,0.00,VWS V14.01,2013-03-20 01:58:00,
2013-03-19 22:00:00,33.7,17.5,30.08,NW,305,2.0,4.0,51,0.00,,OVC100,0.00,VWS V14.01,2013-03-20 02:00:00,
2013-03-19 22:03:00,33.7,17.5,30.08,WSW,253,3.0,8.0,51,0.00,,CLR,0.00,VWS V14.01,2013-03-20 02:03:00,
2013-03-19 22:08:00,33.7,17.5,30.08,West,275,8.0,10.0,51,0.00,,CLR,0.00,VWS V14.01,2013-03-20 02:08:00,
2013-03-19 22:13:00,33.7,17.5,30.08,SW,233,3.0,10.0,51,0.00,,CLR,0.00,VWS V14.01,2013-03-20 02:13:00,
2013-03-19 22:15:00,33.7,17.5,30.08,WNW,299,0.0,10.0,51,0.00,,OVC100,0.00,VWS V14.01,2013-03-20 02:15:00,
2013-03-19 22:19:00,33.7,17.5,30.08,SSW,196,1.0,10.0,51,0.00,,CLR,0.00,VWS V14.01,2013-03-20 02:19:00,
2013-03-19 22:24:00,33.7,18.0,30.08,WSW,257,1.0,9.0,52,0.00,,CLR,0.00,VWS V14.01,2013-03-20 02:24:00,
2013-03-19 22:29:00,33.5,17.8,30.08,SW,227,1.0,6.0,52,0.00,,CLR,0.00,VWS V14.01,2013-03-20 02:29:00,
2013-03-19 22:30:00,33.5,17.8,30.08,SW,230,0.0,6.0,52,0.00,,OVC100,0.00,VWS V14.01,2013-03-20 02:30:00,
2013-03-19 22:34:00,33.5,17.8,30.08,SW,236,2.0,8.0,52,0.00,,CLR,0.00,VWS V14.01,2013-03-20 02:34:00,
2013-03-19 22:39:00,33.4,17.7,30.08,WSW,256,1.0,9.0,52,0.00,,CLR,0.00,VWS V14.01,2013-03-20 02:39:00,
2013-03-19 22:44:00,33.2,17.5,30.08,SW,234,0.0,3.0,52,0.00,,CLR,0.00,VWS V14.01,2013-03-20 02:44:00,
2013-03-19 22:45:00,33.2,17.5,30.08,West,260,1.0,3.0,52,0.00,,OVC100,0.00,VWS V14.01,2013-03-20 02:45:00,
2013-03-19 22:49:00,33.2,17.5,30.08,SW,233,2.0,5.0,52,0.00,,CLR,0.00,VWS V14.01,2013-03-20 02:49:00,
2013-03-19 22:54:00,33.1,17.4,30.08,WSW,241,0.0,5.0,52,0.00,,CLR,0.00,VWS V14.01,2013-03-20 02:54:00,
2013-03-19 22:59:00,32.9,17.7,30.08,SW,224,3.0,5.0,53,0.00,,CLR,0.00,VWS V14.01,2013-03-20 02:59:00,
2013-03-19 23:00:00,32.9,17.7,30.08,WSW,240,4.0,5.0,53,0.00,,OVC100,0.00,VWS V14.01,2013-03-20 03:00:00,
2013-03-19 23:04:00,32.9,17.7,30.08,West,261,3.0,5.0,53,0.00,,CLR,0.00,VWS V14.01,2013-03-20 03:04:00,
2013-03-19 23:09:00,32.9,17.7,30.08,WSW,240,0.0,6.0,53,0.00,,CLR,0.00,VWS V14.01,2013-03-20 03:09:00,
2013-03-19 23:14:00,32.9,17.7,30.08,WSW,250,3.0,6.0,53,0.00,,CLR,0.00,VWS V14.01,2013-03-20 03:14:00,
2013-03-19 23:15:00,33.1,17.8,30.08,SSW,213,1.0,6.0,53,0.00,,OVC100,0.00,VWS V14.01,2013-03-20 03:15:00,
2013-03-19 23:19:00,32.9,17.7,30.08,SW,230,3.0,5.0,53,0.00,,CLR,0.00,VWS V14.01,2013-03-20 03:19:00,
2013-03-19 23:24:00,32.9,17.7,30.08,SW,222,2.0,6.0,53,0.00,,CLR,0.00,VWS V14.01,2013-03-20 03:24:00,
2013-03-19 23:29:00,33.1,17.8,30.08,WSW,243,0.0,6.0,53,0.00,,CLR,0.00,VWS V14.01,2013-03-20 03:29:00,
2013-03-19 23:30:00,33.1,17.8,30.08,WSW,247,2.0,6.0,53,0.00,,OVC100,0.00,VWS V14.01,2013-03-20 03:30:00,
2013-03-19 23:34:00,32.9,17.7,30.08,SW,224,2.0,4.0,53,0.00,,CLR,0.00,VWS V14.01,2013-03-20 03:34:00,
2013-03-19 23:39:00,32.8,17.6,30.08,WSW,256,2.0,5.0,53,0.00,,CLR,0.00,VWS V14.01,2013-03-20 03:39:00,
2013-03-19 23:44:00,32.8,17.6,30.08,West,274,5.0,5.0,53,0.00,,CLR,0.00,VWS V14.01,2013-03-20 03:44:00,
2013-03-19 23:45:00,32.8,17.6,30.08,West,271,2.0,5.0,53,0.00,,OVC100,0.00,VWS V14.01,2013-03-20 03:45:00,
2013-03-19 23:49:00,32.7,17.9,30.08,SW,234,2.0,5.0,54,0.00,,CLR,0.00,VWS V14.01,2013-03-20 03:49:00,
2013-03-19 23:55:00,32.7,17.5,30.08,SW,229,1.0,8.0,53,0.00,,CLR,0.00,VWS V14.01,2013-03-20 03:55:00,